Clear Lake, IA

12:12 PM CST on December 03, 2016 (GMT -0600)
Mason City Municipal

Weather History for KMCW - February, 2011

Change the Weather History Date:

Wednesday, February 23, 2011

  Actual Average Record
Temperature  
Mean Temperature 27 °F 24 °F  
Max Temperature 33 °F 32 °F 57 °F (2002)
Min Temperature 20 °F 15 °F -14 °F (1910)
Degree Days  
Heating Degree Days 38 41  
Month to date heating degree days 1011 1039  
Since 1 July heating degree days 5699 5650  
Cooling Degree Days 0 0  
Month to date cooling degree days 0 0  
Year to date cooling degree days 0 0  
Moisture  
Dew Point 24 °F    
Average Humidity 91    
Maximum Humidity 100    
Minimum Humidity 81    
Precipitation  
Precipitation 0.00 in 0.04 in 0.69 in (1977)
Month to date precipitation 0.97 0.78  
Year to date precipitation 2.04 1.60  
Snow  
Snow 0.00 in 0.20 in 6.50 in (1959)
Month to date snowfall 3.6 6.5  
Since 1 July snowfall 45.8 31.3  
Snow Depth 2.00 in    
Sea Level Pressure  
Sea Level Pressure 30.05 in    
Wind  
Wind Speed 12 mph (South)    
Max Wind Speed 23 mph    
Max Gust Speed 26 mph    
Visibility 5 miles    
Events      
T = Trace of Precipitation, MM = Missing Value Source: NWS Daily Summary

Daily Weather History Graph

Daily Weather History Graph

Search for Another Location

Airport or City:

Trip Planner

Search our weather history database for the weather conditions in past years. The results will help you decide how hot, cold, wet, or windy it might be!

Date:

Astronomy

Feb. 23, 2011 Rise Set
Actual Time 6:59 AM CST 5:54 PM CST
Civil Twilight 6:30 AM CST 6:23 PM CST
Nautical Twilight 5:57 AM CST 6:56 PM CST
Astronomical Twilight 5:24 AM CST 7:29 PM CST
Moon No Moon Rise 9:34 AM CST (2/23)
Length of Visible Light 11h 52m
Length of Day
10h 55m
Waning Gibbous, 64% of the Moon is Illuminated
Feb 23
Waning Gibbous
Feb 24
Last Quarter
Mar 4
New
Mar 12
First Quarter
Mar 19
Full

Hourly Weather History & Observations

Time (CST) Temp. Windchill Dew Point Humidity Pressure Visibility Wind Dir Wind Speed Gust Speed Precip Events Conditions
12:53 AM 26.1 °F 12.3 °F 23.0 °F 88% 30.14 in 5.0 mi SSE 19.6 mph 25.3 mph N/A   Overcast
1:13 AM 24.8 °F 11.1 °F 21.2 °F 86% 30.11 in 6.0 mi SSE 18.4 mph - N/A   Scattered Clouds
1:53 AM 23.0 °F 12.4 °F 21.2 °F 93% 30.12 in 6.0 mi South 10.4 mph - N/A   Clear
2:53 AM 23.0 °F 11.7 °F 21.0 °F 92% 30.13 in 5.0 mi SSE 11.5 mph - N/A   Clear
3:53 AM 21.9 °F 11.7 °F 19.9 °F 92% 30.12 in 5.0 mi SSE 9.2 mph - N/A   Clear
4:53 AM 19.9 °F 9.3 °F 19.0 °F 96% 30.11 in 5.0 mi SE 9.2 mph - N/A   Clear
5:53 AM 19.9 °F 8.6 °F 18.0 °F 92% 30.09 in 5.0 mi SE 10.4 mph - N/A   Clear
6:53 AM 19.9 °F 9.3 °F 18.0 °F 92% 30.09 in 5.0 mi SE 9.2 mph - N/A   Clear
7:53 AM 21.0 °F 9.9 °F 19.0 °F 92% 30.08 in 4.0 mi SE 10.4 mph - N/A   Clear
8:53 AM 24.1 °F 12.0 °F 21.9 °F 91% 30.06 in 4.0 mi SE 13.8 mph - N/A   Clear
9:50 AM 26.6 °F 14.3 °F 24.8 °F 93% 30.02 in 4.0 mi SSE 16.1 mph 23.0 mph N/A   Mostly Cloudy
9:53 AM 27.0 °F 15.2 °F 25.0 °F 92% 30.05 in 4.0 mi SSE 15.0 mph 23.0 mph N/A   Mostly Cloudy
10:53 AM 28.9 °F 16.5 °F 26.1 °F 89% 30.02 in 4.0 mi SSE 18.4 mph - N/A   Overcast
11:53 AM 30.0 °F 19.5 °F 27.0 °F 88% 30.02 in 4.0 mi SSE 13.8 mph - N/A   Overcast
12:53 PM 30.9 °F 20.7 °F 28.0 °F 89% 29.99 in 4.0 mi SSE 13.8 mph - N/A   Overcast
1:53 PM 30.9 °F 21.7 °F 28.0 °F 89% 29.97 in 4.0 mi SSE 11.5 mph - N/A   Overcast
2:53 PM 32.0 °F 22.1 °F 28.9 °F 88% 29.95 in 4.0 mi SSE 13.8 mph - N/A   Overcast
3:53 PM 32.0 °F 24.2 °F 28.9 °F 88% 29.96 in 4.0 mi South 9.2 mph - N/A   Overcast
4:53 PM 32.0 °F 26.4 °F 30.0 °F 92% 29.97 in 4.0 mi South 5.8 mph - N/A   Overcast
5:53 PM 32.0 °F 26.4 °F 30.0 °F 92% 29.99 in 4.0 mi SW 5.8 mph - N/A   Overcast
6:53 PM 32.0 °F 25.6 °F 28.9 °F 88% 30.01 in 5.0 mi West 6.9 mph - N/A   Overcast
7:19 PM 32.0 °F 25.6 °F 28.4 °F 87% 29.98 in 5.0 mi West 6.9 mph - N/A   Overcast
7:50 PM 32.0 °F 25.6 °F 28.4 °F 87% 29.99 in 5.0 mi West 6.9 mph - N/A   Overcast
7:53 PM 32.0 °F 24.8 °F 28.9 °F 88% 30.02 in 5.0 mi WNW 8.1 mph - N/A   Overcast
8:53 PM 32.0 °F 23.6 °F 28.9 °F 88% 30.04 in 5.0 mi WNW 10.4 mph - N/A   Overcast
9:53 PM 26.6 °F 13.4 °F 24.8 °F 93% 30.04 in 7.0 mi WNW 18.4 mph - N/A   Overcast
10:08 PM 24.8 °F 11.9 °F 21.2 °F 86% 30.05 in 8.0 mi NW 16.1 mph - N/A   Scattered Clouds
10:21 PM 24.8 °F 12.9 °F 21.2 °F 86% 30.05 in 8.0 mi NW 13.8 mph - N/A   Mostly Cloudy
10:53 PM 26.1 °F 15.6 °F 23.0 °F 88% 30.10 in 7.0 mi NW 11.5 mph - N/A   Overcast
11:53 PM 25.0 °F 12.6 °F 21.9 °F 88% 30.13 in 6.0 mi NNW 15.0 mph - N/A   Overcast